Погода в Ленске

Погода в Ленске : погода сейчас, прогноз погоды и архив. Всё, что Вы хотите узнать о погоде в Ленске!

Хотите узнать прогноз погоды в Ленске? Тогда Вам сюда: Погода в Ленске

Поиск расширенной информации на нашем сайте:

Другие новости

Новости СМИ2

Главная страница сайта

Новости сайта

03.07.2017

Напоминаем, что на нашем специализированном сайте Метеоцентр.Азия вы можете получить высокодетализированные автоматические прогнозы погоды по пунктам России, СНГ и мира в авиационном формате (включающие направление и скорость ветра, видимость, явления погоды, количество и форму облачности, нижнюю и верхнюю границу облачности).


Погода в Ленске - сегодня

Время (UTC), дата Ветер
(°,м/с) 
Видим.   Явления Облачность Т
(°С)
Тd
(°С)
f(%) Тe
(°С)
Pmin
(гПа)
dP
(гПа)
Po
(мм)
O2
(г/м3)
Тmin Tmax R s Состояние
почвы
21 20.10.17 тихо ()   20000 м    9/3 1000 м средняя, верхняя 
[Sc|Ac trans|Ci fib]
-16.6 -18.5 85 -17  1030.6  -1.2  749  323           
00 21.10.17 тихо ()   20000 м    10/5 1140 м средняя 
[Sc|Ac und]
-14.9 -16.9 85 -15  1029.4  -0.9  748  320  -18.6      11  равномерный
сухой снег
100% 
03 21.10.17 нст () 20000 м    10/5 1300 м средняя 
[Sc|Ac trans]
-12.3 -14.3 85 -12  1027.7  -1.3  747  316           
06 21.10.17 030 (СВ) 20000 м    3/1 1500 м верхняя 
[Sc|Ci fib]
-7.9 -13 67 -8  1025.5  -1.7  746  311           
09 21.10.17 тихо ()   20000 м    3/0 средняя, верхняя 
[Ac trans|Ci fib]
-8.3 -12.5 72 -8  1024.3  -1.2  745  311           
12 21.10.17 тихо ()   20000 м    3/0 верхняя 
[Ci fib]
-14.7 -16.7 85 -15  1023.9  -1.1  744  318    -6.6  0.0     
15 21.10.17 тихо ()   20000 м    4/0 верхняя 
[Ci fib]
-18 -19.9 85 -18  1022.9  -1.4  743  322           
18 21.10.17 тихо ()   20000 м    10/0 средняя, верхняя 
[Ac trans|Ci fib]
-18.3 -20.2 85 -18  1021.4  -1.4  742  322           
21 21.10.17 нст () 20000 м    10/8 800 м средняя 
[Sc|Ac und]
-14.5 -16.5 85 -15  1019  -1.9  740  316           
00 22.10.17 нст () 20000 м    10/6 960 м средняя 
[Sc|Ac und]
-12.2 -14.2 85 -12  1017.2  -1.5  739  313  -18.8      11  равномерный
сухой снег
100% 
03 22.10.17 нст () 4000 м  слаб. ливневой снег  10/8 840 м кучево-дожд., средняя 
[Cb cap|As op]
-10.1 -11.4 90 -10  1015.7  -1.2  738  310           
06 22.10.17 тихо ()   20000 м  слаб. ливневой снег  10/8 660 м кучево-дожд., средняя 
[Cb cap|Ac und]
-6 -7.5 89 -6  1013.7  -1.5  737  304           
09 22.10.17 220 (ЮЗ) 20000 м  в посл. час ливневой снег  10/6 600 м кучево-дожд., средняя 
[Cb cap|Ac und]
-2 -2.6 96 -4  1013.4  0.2  737  300           
12 22.10.17 200 (Ю) 20000 м  слаб. ливневой снег  10/10 450 м кучево-дожд. 
[Cb cap]
-1.4 -1.9 96 -3  1014.4  738  299    -1.3     
15 22.10.17 210 (ЮЗ) 20000 м  {ливн. осадки}  10/8 1050 м кучево-дожд., средняя 
[Cb cap|Ac und]
-0.4 -0.7 98 -3  1014.6  0.3  738  298           
18 22.10.17 230 (ЮЗ) 20000 м  {ливн. осадки}  10/6 1140 м кучево-дожд., средняя 
[Cb cap|Ac und]
+0.1 -1 92 -2  1014.6  0.2  738  298           
21 22.10.17 240 (ЮЗ) 20000 м    10/6 930 м кучево-дожд., средняя 
[Cb cap|Ac und]
-1.1 -2.1 93 -2  1013.3  -1.5  737  299           
00 23.10.17 нст () 20000 м    10/10 480 м кучево-дожд. 
[Cb cap]
-0.2 -0.8 96 1011.3  -1.9  736  297  -1.7    0.0  12  равномерный
сухой снег
100% 
03 23.10.17 нст () 20000 м    10/10 480 м 
[St]
+0.4 -1 90 +1  1008.2  -2.9  734  295           
06 23.10.17 050 (СВ) 20000 м  слаб. ливневой дождь  10/10 450 м кучево-дожд. 
[Cb cap]
+1.1 +0.3 94 +2  1004.7  -3.3  731  293           
09 23.10.17 220 (ЮЗ) 20000 м  слаб. ливневой дождь  10/10 450 м кучево-дожд. 
[Cb cap]
+1.6 +1.1 96 -1  1002.6  -2  730  292           
12 23.10.17 250 (З) 20000 м  слаб. ливневой дождь  10/10 360 м кучево-дожд. 
[Cb cap]
+2 +0.9 92 -1  1004.1  1.5  731  292    +2.2     
15 23.10.17 240 (ЮЗ) 7-12  20000 м  {ливн. осадки}  10/8 660 м кучево-дожд., средняя 
[Cb cap|Ac und]
+0.5 -3.2 76 -3  1005.9  1.6  732  295           
18 23.10.17 240 (ЮЗ) 6{14}  20000 м  слаб. ливневой снег  10/8 750 м кучево-дожд., средняя 
[Cb cap|Ac und]
-0.1 -4.4 73 -4  1007.9  1.8  733  296           
21 23.10.17 240 (ЮЗ) 7{13}  20000 м  слаб. ливневой снег  10/6 720 м кучево-дожд., средняя 
[Cb cap|Ac und]
-0.6 -3.7 80 -5  1008.7  0.8  734  297           
Время (UTC), дата Ветер
(°,м/с) 
Видим.   Явления Облачность Т
(°С)
Тd
(°С)
f(%) Тe
(°С)
Pmin
(гПа)
dP
(гПа)
Po
(мм)
O2
(г/м3)
Тmin Tmax R s Состояние
почвы

Для получения пояснительной информации подведите курсор к названию столбца.

ПОГОДА в Ленске - архив

Всё, что Вы хотите узнать о погоде в Ленске - удобно и подробно!

Выберите нужную дату (начиная с 1 января 2015* года) и нажмите кнопку "Найти".
Будут отображены архивные сводки погоды по пункту Ленск, начиная с указанной даты.


Отображать данные в формате CSV (для использования в таблицах Excel)


Внимание! Наш архив погоды предназначен исключительно для личного некоммерческого использования в познавательных целях. Если Вам необходимы официальные справки о состоянии погоды (для производственных, юридических, коммерческих и т.п. целей), обращайтесь в органы Росгидромета.

*Примечание: данная дата относится к архиву по метеостанциям СССР (Россия, СНГ, Балтия).
Архив по метеостанциям Зарубежной Европы и Азии (кроме Китая) хранится 10 дней, по другим регионам земного шара (Китай, Африка, Америка, Австралия, Океания) - 1 день.

Ленск - район местоположения метеостанции


Название, широта, долгота, высота метеостанции:
Ленск 60.7°ш. 114.9°д. 234 м над ур. моря [Российская Федерация]

Дополнительная информация

В oтличие oт бoльшинства пoгoдных сайтoв мы публикуем пoдрoбную метеoинфoрмацию в детальнoм прoфессиoнальнoм фoрмате.

Характеристики температуры и влажнoсти вoздуха измеряются на высoте 2 м в тени вдали oт зданий и деревьев.
Скoрoсть ветра измеряется на высoте 10 м (на урoвне рoста челoвека скoрoсть ветра ниже в 1.5-2 раза). Если метеoстанция нахoдится в гoрoде или в лесу, тo скoрoсть ветра занижена на 2-4 м/с пo сравнению с oткрытым местoм. Скoрoсть ветра над акватoриями крупных рек и oзёр, а также на вершинах хoлмoв на 2-5 м/с выше, чем в oбычных услoвиях.
Атмoсфернoе давление в разных тoчках местнoсти мoжет значительнo oтличаться oт давления на метеoстанции, в зависимoсти oт услoвий рельефа (при пoдъёме на 10 м давление пoнижается примернo на 1 мм рт.ст.).